This is the latest recevied weather packets stored in our database for station/object WW5JC. If no packets are shown the sender has not sent any weather packets the latest 10 day(s).
| Time | Temp. | Humidity | Pressure | Rain* | Wind** | Luminosity | Snow |
|---|---|---|---|---|---|---|---|
| 1788306684 | 35° C | 48% | 1015.5 hPa | 0 mm | - | 43 W/m² | - |
| 1788306383 | 35° C | 47% | 1015.5 hPa | 0 mm | - | 35 W/m² | - |
| 1788306078 | 35° C | 47% | 1015.6 hPa | 0 mm | - | 44 W/m² | - |
| 1788305773 | 35.56° C | 47% | 1015.6 hPa | 0 mm | - | 51 W/m² | - |
| 1788305469 | 35.56° C | 46% | 1015.6 hPa | 0 mm | - | 48 W/m² | - |
| 1788305164 | 36.11° C | 45% | 1015.7 hPa | 0 mm | - | 104 W/m² | - |
| 1788304864 | 36.11° C | 45% | 1015.6 hPa | 0 mm | - | 118 W/m² | - |
| 1788304561 | 36.67° C | 45% | 1015.8 hPa | 0 mm | - | 131 W/m² | - |
| 1788304256 | 36.67° C | 44% | 1015.4 hPa | 0 mm | - | 136 W/m² | - |
| 1788303951 | 36.67° C | 45% | 1015.6 hPa | 0 mm | - | 139 W/m² | - |
| 1788303646 | 36.67° C | 45% | 1015.6 hPa | 0 mm | - | 151 W/m² | - |
| 1788303341 | 36.67° C | 45% | 1015.7 hPa | 0 mm | - | 164 W/m² | - |
| 1788303041 | 36.67° C | 45% | 1015.7 hPa | 0 mm | - | 184 W/m² | - |
| 1788302737 | 36.67° C | 45% | 1015.6 hPa | 0 mm | - | 203 W/m² | - |
| 1788302433 | 36.67° C | 45% | 1015.7 hPa | 0 mm | - | 208 W/m² | - |
| 1788302128 | 36.67° C | 45% | 1015.6 hPa | 0 mm | - | 230 W/m² | - |
| 1788301823 | 36.67° C | 44% | 1015.6 hPa | 0 mm | - | 236 W/m² | - |
| 1788301520 | 36.67° C | 44% | 1015.8 hPa | 0 mm | - | 259 W/m² | - |
| 1788301215 | 36.67° C | 44% | 1015.7 hPa | 0 mm | - | 226 W/m² | - |
| 1788300911 | 36.11° C | 46% | 1015.8 hPa | 0 mm | - | 99 W/m² | - |
| 1788300606 | 36.67° C | 45% | 1015.7 hPa | 0 mm | - | 69 W/m² | - |
| 1788300300 | 37.22° C | 43% | 1015.6 hPa | 0 mm | - | 144 W/m² | - |
| 1788299998 | 37.22° C | 43% | 1015.7 hPa | 0 mm | - | 338 W/m² | - |
| 1788299697 | 37.22° C | 43% | 1016 hPa | 0 mm | - | 344 W/m² | - |
| 1788299397 | 36.67° C | 43% | 1015.9 hPa | 0 mm | - | 349 W/m² | - |
* Rain latest hour (hover to see other rain measurements)
** Current wind speed in m/s (hover to see current wind gust speed)